EHI
1 3 6 6 6 5 6 6 6 6 6 4 3 2 2 3 3 1 0 0 0 0 0 0 0 0 0 0 0 0 0 0 0 0 0 0 0 0 0 0 0 0 0
2 4 6 7 7 6 6 6 6 5 5 3 2 1 1 2 3 2 1 0 0 0 0 0 0 0 0 0 0 0 0 0 0 0 0 0 0 0 0 0 0 0 0
2 5 6 7 7 7 5 5 4 3 2 2 1 0 0 1 2 2 1 1 0 0 0 0 0 0 0 0 0 0 0 0 0 0 0 0 0 0 0 0 0 0 0
3 4 5 6 7 7 6 4 2 1 1 1 1 1 1 0 1 1 1 1 1 0 0 0 0 0 0 0 0 0 0 0 0 0 0 0 0 0 0 0 0 0 0
3 4 5 7 7 8 6 3 1 1 1 2 3 2 2 1 1 0 1 1 1 0 0 0 0 0 0 0 0 0 1 1 0 0 0 0 0 0 0 0 0 0 0
5 6 7 8 9 9 7 4 3 3 3 3 3 2 2 2 2 1 1 0 0 0 0 0 0 0 0 0 0 1 2 2 1 0 0 0 0 0 0 0 0 0 0
8 8 8 8 9 8 6 4 4 4 3 2 1 0 1 1 2 2 1 0 0 0 0 0 0 0 0 0 1 2 3 2 1 0 0 0 0 0 0 0 0 0 0
8 8 8 7 7 5 3 3 4 3 3 1 0 0 0 1 2 2 1 0 0 0 0 0 0 0 0 0 1 2 3 1 0 0 0 0 0 0 0 0 0 0 0
6 7 7 6 4 2 1 2 2 2 2 1 0 0 0 1 1 1 1 1 1 1 0 0 0 0 0 0 1 2 2 1 0 0 0 0 0 0 0 0 0 0 0
4 5 6 5 3 1 1 1 1 1 1 0 0 0 0 1 2 2 1 1 1 1 0 0 0 0 0 0 0 1 1 0 0 0 0 0 0 0 0 0 0 0 0
2 3 4 4 3 2 1 1 0 0 0 0 0 0 0 1 1 1 1 0 0 0 0 0 0 0 0 0 0 0 0 0 0 0 0 0 0 0 0 0 0 0 0
1 1 3 3 3 3 2 1 0 0 0 0 0 0 0 0 0 0 0 0 0 0 0 0 0 0 0 0 0 0 0 0 0 0 0 0 0 0 0 0 0 0 0
0 1 3 3 3 3 2 1 0 0 0 0 0 0 0 0 0 0 0 0 0 0 0 0 0 0 0 0 0 0 0 0 0 0 0 0 0 0 0 0 0 0 0
1 2 3 3 2 2 1 0 0 0 0 0 0 0 0 0 0 0 1 1 0 0 0 0 0 0 0 0 0 0 0 0 0 0 0 0 0 0 0 0 0 0 0
1 2 2 1 1 1 0 0 0 0 0 0 0 0 0 0 0 0 1 1 1 0 0 0 0 0 0 0 0 0 0 0 0 0 0 0 0 0 0 1 1 0 0
0 1 1 0 0 0 0 0 0 0 0 0 0 0 0 0 0 0 1 1 1 0 0 0 0 0 0 0 0 1 2 2 2 1 0 0 0 0 0 1 2 1 1
0 0 0 0 0 0 1 1 0 0 0 0 0 0 0 0 0 0 0 0 0 0 0 0 0 0 0 0 1 2 3 3 3 2 1 0 0 0 0 1 2 2 2
0 0 0 0 0 0 1 1 0 0 0 0 0 0 0 0 0 0 0 0 0 0 0 0 0 0 0 0 1 2 3 3 3 3 2 1 0 0 0 0 1 2 2
0 0 0 0 0 0 1 1 0 0 0 0 0 0 0 0 0 0 0 0 0 0 0 0 0 0 0 0 1 2 3 3 3 3 3 2 1 0 0 0 0 1 1
0 0 0 0 0 0 0 0 0 0 0 0 0 0 0 0 0 0 0 0 0 0 0 0 0 0 0 0 0 1 3 3 3 3 3 2 1 0 0 0 0 0 0
0 0 0 0 0 0 0 1 1 0 0 0 0 0 0 0 0 0 0 0 0 0 0 0 0 0 0 0 0 1 2 2 2 3 3 2 1 0 0 0 0 0 0
0 0 0 0 0 0 0 1 1 0 0 0 0 0 0 0 0 0 0 0 0 0 0 0 0 0 0 0 0 0 1 1 1 1 2 2 1 0 0 0 0 0 0
0 0 0 0 0 0 0 1 1 0 0 0 0 0 0 0 0 0 0 0 0 0 0 0 0 0 0 0 0 0 0 0 1 1 1 1 0 0 0 0 0 0 0
0 0 0 0 0 0 0 0 0 0 0 0 0 0 0 0 0 0 0 0 0 0 0 0 0 0 0 0 0 0 0 0 1 1 1 0 0 0 0 0 0 0 0
0 0 0 0 0 0 0 0 0 0 0 0 0 0 0 0 0 0 0 0 0 0 0 0 0 0 0 0 0 0 0 0 1 1 1 0 0 0 0 0 0 0 0
0 0 0 0 0 0 0 0 0 0 0 0 0 0 0 0 0 0 0 0 0 0 0 0 0 0 0 0 0 0 0 0 0 1 0 0 0 0 0 0 0 0 0
Wind_Speed
4 4 4 5 6 7 7 7 6 7 7 7 7 7 8 8 8 8 8 8 8 8 9 9 9 10 11 11 11 12 12 12 12 12 12 11 12 12 12 9 8 11 13
3 5 5 5 5 6 6 6 7 7 6 6 6 6 7 7 7 8 7 7 7 8 8 9 9 10 10 11 11 11 11 11 11 10 9 10 10 11 11 10 9 10 12
4 5 5 4 5 6 6 6 6 6 6 6 6 6 6 6 6 7 7 7 7 7 8 8 9 9 10 10 10 10 10 10 9 6 4 7 10 10 10 10 11 12 12
4 4 4 5 5 5 5 6 5 5 5 5 5 6 6 6 5 6 6 6 6 7 7 7 8 8 9 9 9 9 9 9 7 2 4 6 8 10 9 10 10 11 11
4 4 5 6 5 5 6 5 5 5 5 5 5 5 5 5 5 5 6 6 6 6 6 7 7 7 8 8 8 8 8 7 4 2 5 6 7 9 9 9 10 10 11
4 4 6 6 6 5 5 5 4 4 4 4 4 4 5 5 5 5 5 5 5 5 5 6 7 7 7 7 7 7 7 4 3 4 5 5 6 8 8 9 9 9 10
4 4 5 6 6 6 5 4 4 4 4 4 4 4 4 4 5 5 5 4 4 5 5 6 6 6 6 6 7 6 6 2 2 4 4 4 6 8 8 8 9 9 9
4 4 4 6 6 6 5 5 4 4 4 4 4 4 4 4 4 4 4 4 4 4 5 5 6 6 6 6 6 6 4 1 3 4 4 4 6 6 6 7 8 8 8
5 4 4 3 4 4 5 5 5 4 5 5 4 5 5 4 4 3 4 3 4 4 4 5 5 5 5 5 6 6 4 1 1 3 3 3 5 4 6 7 7 8 8
6 5 5 4 3 2 3 5 5 5 4 4 5 5 5 4 4 4 3 3 4 4 4 4 4 5 5 5 5 5 3 1 2 3 2 4 5 4 5 6 7 7 8
6 5 5 4 4 3 2 3 4 4 5 4 4 5 2 2 2 2 4 4 3 4 4 4 4 4 4 5 5 3 2 1 2 1 2 5 4 4 4 5 6 7 7
5 5 5 4 4 3 2 2 2 2 3 2 2 2 1 1 2 2 4 3 3 3 3 3 3 4 4 4 5 4 2 2 1 2 3 4 3 3 4 5 5 6 7
4 5 5 5 4 3 2 2 1 1 2 2 2 2 1 1 1 1 1 1 2 2 2 3 4 3 3 2 2 3 2 1 1 1 3 3 1 2 3 4 5 5 6
6 6 5 5 4 3 2 2 1 1 1 1 2 2 1 1 1 0 0 0 1 1 1 2 2 2 3 3 3 3 3 2 1 1 2 3 1 2 3 4 5 5 5
6 6 6 5 4 3 2 2 2 2 1 1 2 2 2 1 1 1 1 1 1 1 1 2 2 3 3 3 2 3 3 2 2 2 2 3 2 1 2 3 4 5 5
7 6 6 6 5 4 3 2 2 2 2 1 1 2 2 2 1 1 1 1 1 1 1 2 3 2 2 2 2 3 3 2 2 2 2 3 3 1 1 2 3 4 4
7 7 6 5 5 4 3 3 2 2 2 1 1 2 2 2 2 2 1 1 1 1 2 2 2 2 2 2 3 2 2 2 2 2 2 1 2 2 1 2 2 3 3
7 7 7 6 5 5 4 3 2 2 2 2 2 2 3 3 3 2 1 1 1 2 2 2 2 2 3 2 2 2 2 2 2 2 2 2 1 2 3 2 2 2 2
7 7 7 7 7 6 4 3 3 2 2 2 2 2 3 3 3 2 2 2 2 2 2 2 2 2 3 2 2 2 1 2 2 2 2 2 1 1 1 3 3 2 2
8 7 7 7 7 6 4 3 2 2 2 2 2 3 3 3 3 3 2 2 2 2 2 2 3 2 3 2 2 2 1 2 2 2 2 2 1 1 1 2 3 3 2
8 8 7 7 7 6 4 4 3 3 3 2 2 3 3 3 3 3 2 2 2 2 3 3 2 3 3 3 3 2 2 2 2 2 2 2 2 2 1 1 1 1 2
8 8 7 7 6 6 5 4 4 4 3 3 2 3 3 4 4 3 3 2 2 3 3 3 3 2 2 3 3 3 3 3 3 2 2 2 2 2 2 2 1 1 1
9 9 7 7 6 6 6 4 4 3 2 2 3 3 3 4 4 4 4 3 3 3 3 4 4 4 3 3 4 4 4 4 2 3 4 3 3 2 2 2 2 1 1
9 8 8 7 7 6 6 5 5 4 4 4 4 4 4 4 4 4 4 4 3 3 4 4 4 4 4 4 3 4 3 2 3 3 4 4 3 3 3 2 2 2 2
8 8 8 8 7 7 6 6 5 5 5 4 4 5 4 4 4 4 4 4 4 3 4 4 4 4 4 4 4 3 4 3 4 4 4 4 3 3 3 3 2 2 2
8 8 8 8 8 7 7 7 6 7 7 6 6 5 4 4 4 4 4 4 4 4 4 5 5 5 5 5 4 4 4 4 5 5 4 4 4 3 3 2 2 2 2
Wind_Direction
147 143 126 145 136 128 121 113 113 110 107 106 103 103 103 99 96 95 94 92 90 92 91 91 90 94 92 89 88 89 87 85 83 83 82 82 86 89 88 86 92 90 87
137 144 129 131 130 127 125 117 106 108 107 107 104 104 105 103 98 95 95 93 92 93 93 92 91 93 93 91 89 88 86 86 83 82 88 91 84 88 86 74 62 87 92
125 131 136 119 120 115 114 111 105 106 111 112 110 108 111 108 103 98 95 91 91 91 93 93 91 92 94 93 92 89 87 87 84 83 109 105 97 91 91 85 82 90 91
115 119 114 93 106 108 103 100 99 106 112 115 115 117 117 113 109 103 98 90 88 87 89 92 92 92 94 94 94 92 90 88 82 99 110 97 100 96 98 95 93 93 92
102 100 91 72 84 89 91 98 100 101 108 110 112 117 115 113 112 109 101 95 90 89 92 93 94 94 95 97 96 95 93 90 89 118 97 98 98 101 106 104 99 97 96
91 85 81 61 71 77 79 82 89 99 103 106 108 113 116 114 113 108 100 97 96 93 98 104 103 100 99 100 101 100 95 94 155 110 104 104 103 103 107 106 102 101 100
77 67 76 58 62 64 68 74 78 81 91 95 97 101 105 109 112 112 104 100 100 102 109 115 112 106 104 105 104 102 95 69 117 106 105 105 96 102 109 109 107 106 105
68 63 67 56 53 54 55 54 58 67 72 78 80 82 82 86 99 110 106 101 103 109 119 119 117 114 107 103 105 100 91 79 123 114 114 109 89 103 115 113 111 110 112
52 49 49 57 59 54 49 49 48 53 60 64 67 67 67 72 76 91 100 97 98 106 118 122 121 117 112 109 105 99 88 16 136 114 115 104 92 106 120 119 118 115 114
42 40 32 29 29 45 65 55 49 51 53 56 60 63 64 77 81 78 91 91 94 97 104 121 124 120 116 113 109 104 106 206 140 126 122 97 92 114 124 119 123 121 120
28 25 24 22 21 20 49 55 54 61 59 65 75 73 87 109 103 101 75 62 84 97 98 105 122 121 124 123 114 120 173 189 142 121 107 87 102 121 128 125 126 128 127
12 10 11 13 17 18 24 47 43 48 63 58 64 70 72 71 64 64 76 63 70 90 104 105 118 153 184 162 148 175 191 185 160 135 100 86 105 125 134 135 131 133 136
3 6 4 3 8 19 17 23 31 35 42 39 37 28 25 49 72 74 102 132 149 168 160 152 179 189 192 178 177 184 185 187 168 134 104 88 106 141 145 141 137 136 143
3 358 360 1 2 6 11 18 23 31 31 26 24 17 11 20 13 360 294 296 250 222 201 203 204 191 195 188 187 187 181 185 178 151 96 81 100 160 158 154 149 149 148
4 358 358 356 2 3 8 9 19 21 11 10 15 7 354 348 341 328 311 292 264 262 236 229 212 204 204 195 195 197 190 186 187 180 129 90 74 115 157 162 162 166 165
358 354 356 358 0 4 10 5 10 15 7 360 2 357 349 334 314 290 282 300 280 257 254 238 220 212 219 209 201 202 204 196 196 196 188 136 102 80 125 160 173 177 178
356 353 355 358 360 4 0 355 1 10 1 356 353 348 340 329 313 302 272 274 288 278 250 243 225 217 214 210 209 210 212 213 207 206 200 198 158 134 132 151 164 168 174
358 0 360 359 358 0 1 349 357 360 357 349 342 342 335 324 314 299 284 278 289 276 251 231 227 216 211 215 213 206 207 205 210 207 198 199 192 184 153 130 137 146 153
0 2 3 2 1 357 353 350 355 355 357 346 339 334 332 322 311 293 285 284 274 266 253 239 225 223 213 207 206 207 212 214 216 211 200 194 175 183 181 153 149 132 132
6 5 5 6 5 358 351 352 352 354 349 344 336 333 324 314 306 297 287 280 270 259 256 246 235 225 216 200 199 200 203 215 227 223 217 202 183 181 189 187 174 156 146
8 6 6 6 5 3 355 346 339 335 331 328 325 327 323 312 303 296 295 286 273 256 252 247 246 220 210 195 199 201 202 204 217 233 229 214 196 192 188 195 188 182 161
5 1 0 360 358 358 351 340 325 313 310 315 320 317 317 312 304 293 284 279 277 267 252 242 236 230 217 210 207 200 205 203 204 218 223 221 219 206 206 204 203 208 196
3 358 352 350 350 352 349 344 338 328 322 323 319 307 305 305 299 289 278 270 265 259 250 242 234 234 226 221 226 221 211 210 185 191 212 215 217 220 215 206 210 222 221
356 354 350 348 348 350 348 343 338 325 316 313 308 301 299 297 296 291 281 273 264 256 254 249 240 238 233 226 230 240 249 221 203 190 195 206 213 226 227 212 214 215 223
351 352 349 347 350 350 346 340 328 321 312 307 303 300 299 294 293 295 286 274 265 259 258 259 258 244 233 233 228 228 225 229 228 217 207 196 202 214 228 225 221 220 218
351 352 351 347 349 348 345 339 329 321 318 311 306 299 295 292 288 291 290 276 265 259 253 252 253 251 245 238 234 226 219 214 213 215 219 208 210 207 214 225 222 223 219